Temp
86 89 82 83 83 83 83 84 83 83 83 82 82 82 83 83 83 83 83 83 84 84 84 84 85 84 84 84 84 84 84 84 84 83 83 83 83 83 83 83 84 89 82
89 89 82 83 83 83 83 83 83 83 83 82 82 83 83 83 83 83 83 84 84 84 84 84 85 84 84 84 84 84 84 83 83 84 84 83 83 82 82 82 84 85 83
88 89 87 83 83 83 83 83 83 83 83 83 83 83 83 83 83 83 83 84 84 84 84 84 84 84 84 84 84 84 83 83 83 83 84 90 89 82 82 82 82 82 82
89 90 89 82 83 83 83 83 83 83 83 83 83 83 83 83 83 84 84 84 84 84 84 84 84 84 84 84 83 83 83 83 83 83 90 91 90 83 83 82 82 82 81
88 91 89 82 83 83 83 83 83 83 83 83 83 83 83 83 84 84 84 84 84 84 84 84 84 84 84 83 83 83 83 83 82 86 88 89 90 84 83 82 82 82 83
88 91 85 83 83 83 83 83 83 83 83 83 83 83 84 84 84 84 84 84 84 84 84 85 85 84 84 83 83 83 83 83 83 89 88 86 89 82 82 83 82 82 81
87 90 88 83 83 83 82 83 83 83 83 83 83 84 83 84 84 84 84 84 84 84 84 84 84 84 84 83 83 83 83 83 89 89 87 88 88 82 83 82 82 82 81
87 89 88 83 83 83 83 83 83 83 83 83 83 83 83 83 83 83 84 84 84 84 83 84 84 84 84 83 83 83 83 83 87 88 88 88 81 82 82 82 82 81 81
88 87 87 87 85 83 83 83 83 83 83 83 83 83 83 83 83 84 83 83 84 84 83 83 84 83 83 83 83 83 83 82 89 90 89 89 79 82 82 82 81 81 81
85 86 85 86 86 86 87 83 83 83 83 83 84 83 84 84 84 84 82 83 83 83 82 84 83 83 83 83 83 82 83 82 90 90 90 90 79 81 82 82 81 81 81
83 84 84 85 84 84 85 85 83 83 84 84 84 84 84 87 87 86 84 83 84 83 83 83 83 83 83 83 82 83 83 92 91 91 92 80 80 81 83 82 81 81 81
80 82 83 84 84 84 86 84 85 87 87 87 85 86 84 84 86 87 85 83 84 83 83 84 83 83 83 89 88 84 91 90 90 91 92 80 80 81 82 82 81 81 81
82 82 80 82 83 84 85 85 86 87 86 85 83 83 84 84 82 82 82 86 86 83 87 86 86 88 87 88 89 89 89 89 92 92 90 80 80 81 82 82 81 81 81
81 82 82 81 80 83 85 85 85 86 85 85 84 82 83 84 82 80 82 85 84 82 83 86 87 86 86 86 87 87 87 89 91 92 90 81 80 81 82 82 81 81 81
80 81 82 81 80 81 81 84 84 84 85 86 84 83 85 84 83 83 83 84 85 85 84 81 84 84 83 85 86 86 88 88 89 90 90 83 80 80 82 82 82 81 81
80 81 82 79 79 81 81 81 82 84 85 85 86 85 83 84 83 84 83 84 84 85 86 83 84 83 83 85 84 85 86 87 88 87 92 91 81 80 81 82 82 82 82
81 82 81 78 78 78 79 81 82 84 85 84 85 83 82 83 82 83 84 84 85 84 82 81 82 82 83 83 83 85 86 86 88 87 90 90 90 80 80 81 81 81 81
81 79 81 80 76 77 78 80 80 83 83 85 85 85 82 82 82 82 83 84 85 83 83 83 82 82 83 84 83 85 86 86 86 87 89 89 91 92 84 81 81 80 81
81 79 79 80 78 78 79 80 80 80 81 83 85 84 82 82 82 83 84 85 82 84 83 83 82 81 82 82 84 85 85 86 87 90 88 88 88 89 92 85 80 80 81
82 81 80 80 80 79 80 79 81 81 82 81 81 84 82 83 82 82 83 83 82 81 82 81 80 81 81 82 84 85 85 87 88 88 88 90 90 89 89 88 89 89 81
82 80 79 78 78 79 79 77 77 76 80 82 83 82 82 82 82 81 83 81 81 82 82 80 81 79 81 82 80 82 83 85 86 88 89 90 89 89 88 88 88 90 91
81 80 79 78 78 78 80 80 81 81 82 83 83 82 82 82 82 82 82 82 81 82 80 80 79 81 82 82 80 81 78 83 86 88 89 88 88 90 90 87 87 86 88
82 80 79 79 79 79 80 80 80 81 81 79 80 81 82 82 81 81 81 82 81 82 83 80 80 79 77 77 78 75 71 73 82 87 85 87 87 89 89 89 87 87 86
83 82 80 79 79 79 79 79 77 79 78 81 81 82 82 81 81 81 81 81 80 82 81 81 82 81 77 78 76 78 77 79 73 78 84 85 84 83 84 87 88 87 87
84 83 82 79 79 79 78 79 79 79 82 83 82 80 79 81 81 82 81 81 80 81 81 80 80 79 82 80 75 77 76 75 78 75 77 82 86 87 87 87 88 88 87
82 83 82 79 78 79 79 79 78 78 80 81 80 80 82 83 82 81 82 81 80 81 80 80 80 79 77 79 79 77 78 79 77 76 76 78 79 83 86 88 88 88 86
MSLP
1011.03 1011.43 1012.18 1012.38 1012.63 1012.66 1012.78 1012.98 1013.36 1013.79 1014.23 1014.52 1014.88 1015.18 1015.33 1015.51 1015.89 1016.07 1016.42 1016.71 1016.93 1016.97 1017.17 1017.31 1017.51 1017.78 1017.78 1017.98 1018.03 1018.18 1018.33 1018.63 1018.70 1018.86 1019.12 1019.38 1019.59 1019.60 1019.78 1019.96 1019.97 1019.97 1020.50
1010.61 1011.31 1012.18 1012.48 1012.74 1012.97 1013.08 1013.34 1013.65 1014.02 1014.45 1014.80 1015.24 1015.50 1015.70 1015.83 1016.08 1016.33 1016.63 1016.79 1017.07 1017.15 1017.36 1017.51 1017.61 1018.02 1018.06 1018.24 1018.35 1018.52 1018.71 1018.85 1018.87 1018.96 1019.21 1019.60 1019.80 1019.93 1020.10 1020.19 1020.22 1020.52 1020.74
1010.64 1011.29 1012.04 1012.56 1012.91 1013.24 1013.46 1013.67 1013.84 1014.30 1014.77 1015.14 1015.42 1015.76 1016.00 1016.18 1016.49 1016.59 1016.81 1016.92 1017.23 1017.39 1017.57 1017.75 1017.89 1018.13 1018.37 1018.56 1018.65 1018.72 1018.95 1019.08 1019.10 1019.20 1019.41 1019.34 1019.76 1020.26 1020.33 1020.48 1020.72 1020.91 1021.05
1010.52 1011.14 1011.81 1012.64 1013.05 1013.42 1013.68 1013.94 1014.21 1014.50 1014.89 1015.33 1015.67 1015.96 1016.19 1016.43 1016.68 1016.91 1016.98 1017.14 1017.40 1017.65 1017.77 1017.93 1018.14 1018.31 1018.58 1018.74 1018.95 1019.00 1019.22 1019.30 1019.35 1019.43 1019.16 1019.35 1019.73 1020.39 1020.48 1020.69 1020.90 1021.11 1021.26
1010.56 1011.05 1011.82 1012.60 1013.07 1013.47 1013.80 1014.13 1014.41 1014.71 1015.08 1015.47 1015.81 1016.10 1016.34 1016.57 1016.77 1017.08 1017.24 1017.43 1017.53 1017.78 1018.00 1018.12 1018.31 1018.49 1018.77 1018.93 1019.12 1019.26 1019.55 1019.56 1019.71 1019.54 1019.52 1019.67 1019.76 1020.48 1020.67 1020.86 1021.00 1021.23 1021.34
1010.53 1011.00 1011.96 1012.61 1013.09 1013.46 1013.84 1014.24 1014.62 1014.92 1015.20 1015.51 1015.85 1016.22 1016.42 1016.67 1016.86 1017.09 1017.31 1017.57 1017.67 1017.93 1018.12 1018.24 1018.44 1018.72 1018.93 1019.09 1019.32 1019.44 1019.73 1019.91 1019.83 1019.66 1019.78 1020.14 1019.95 1020.76 1020.90 1020.99 1021.09 1021.33 1021.59
1010.74 1011.12 1011.88 1012.57 1013.18 1013.58 1013.93 1014.27 1014.64 1015.02 1015.33 1015.64 1015.91 1016.21 1016.47 1016.70 1016.98 1017.23 1017.42 1017.56 1017.88 1018.04 1018.12 1018.32 1018.61 1018.86 1019.11 1019.27 1019.47 1019.74 1019.89 1020.10 1019.76 1019.81 1019.92 1020.01 1020.26 1020.88 1021.08 1021.27 1021.41 1021.54 1021.71
1010.83 1011.26 1011.86 1012.62 1013.18 1013.65 1014.06 1014.43 1014.73 1015.09 1015.42 1015.64 1015.95 1016.25 1016.52 1016.80 1017.05 1017.24 1017.52 1017.61 1017.95 1018.12 1018.33 1018.46 1018.69 1018.95 1019.28 1019.49 1019.65 1019.91 1019.97 1020.13 1020.02 1019.95 1020.13 1020.34 1020.84 1021.00 1021.15 1021.41 1021.63 1021.78 1021.90
1011.15 1011.53 1012.05 1012.50 1013.13 1013.64 1014.13 1014.50 1014.88 1015.07 1015.42 1015.69 1015.91 1016.23 1016.59 1016.75 1017.03 1017.25 1017.51 1017.78 1018.00 1018.25 1018.41 1018.58 1018.81 1019.08 1019.42 1019.68 1019.82 1019.99 1020.07 1020.21 1019.90 1019.94 1020.22 1020.40 1021.14 1021.19 1021.26 1021.43 1021.71 1021.89 1022.04
1011.42 1011.73 1012.03 1012.44 1012.99 1013.41 1013.95 1014.44 1014.88 1015.10 1015.37 1015.69 1015.95 1016.23 1016.57 1016.82 1017.09 1017.33 1017.70 1017.90 1018.05 1018.39 1018.72 1018.74 1019.00 1019.18 1019.52 1019.74 1019.90 1020.02 1020.09 1020.18 1019.79 1019.96 1020.18 1020.31 1021.14 1021.20 1021.24 1021.52 1021.76 1021.94 1022.09
1011.36 1011.74 1012.07 1012.47 1012.89 1013.35 1013.76 1014.27 1014.76 1015.12 1015.36 1015.72 1015.92 1016.19 1016.57 1016.74 1017.08 1017.44 1017.63 1017.96 1018.08 1018.43 1018.74 1018.88 1019.12 1019.31 1019.63 1019.80 1019.96 1020.08 1020.12 1019.81 1019.80 1019.82 1019.97 1020.72 1021.09 1021.22 1021.30 1021.53 1021.76 1021.98 1022.12
1010.69 1011.51 1012.11 1012.49 1012.76 1013.26 1013.61 1014.11 1014.50 1014.85 1015.17 1015.42 1015.95 1016.01 1016.53 1016.86 1017.00 1017.25 1017.69 1018.06 1018.28 1018.55 1018.79 1018.96 1019.23 1019.47 1019.72 1019.52 1019.80 1020.08 1019.71 1019.88 1019.90 1019.79 1019.87 1020.62 1020.93 1021.19 1021.31 1021.52 1021.74 1021.91 1022.04
1010.37 1011.34 1011.94 1012.44 1012.78 1013.17 1013.44 1013.89 1014.30 1014.56 1014.93 1015.34 1015.73 1016.06 1016.44 1016.87 1017.28 1017.63 1017.91 1018.02 1018.16 1018.69 1018.59 1018.93 1019.17 1019.18 1019.40 1019.62 1019.61 1019.67 1019.79 1019.92 1019.76 1019.78 1019.79 1020.61 1020.80 1021.00 1021.17 1021.41 1021.61 1021.75 1021.90
1010.01 1010.80 1011.55 1012.15 1012.71 1013.00 1013.44 1013.78 1014.03 1014.32 1014.71 1015.16 1015.62 1016.11 1016.47 1016.79 1017.30 1017.72 1017.95 1018.04 1018.36 1018.62 1018.60 1018.67 1018.86 1019.19 1019.57 1019.83 1019.77 1019.73 1019.85 1019.86 1019.68 1019.63 1019.74 1020.45 1020.66 1020.76 1020.89 1021.12 1021.38 1021.55 1021.73
1009.66 1010.45 1011.21 1011.82 1012.33 1012.78 1013.33 1013.54 1013.87 1014.22 1014.53 1014.82 1015.46 1015.92 1016.20 1016.61 1017.04 1017.44 1017.72 1017.97 1018.28 1018.44 1018.58 1019.01 1019.03 1019.34 1019.68 1019.83 1019.86 1019.92 1019.78 1019.78 1019.73 1019.64 1019.61 1020.00 1020.33 1020.48 1020.60 1020.76 1021.03 1021.35 1021.53
1009.52 1010.25 1011.04 1011.84 1012.26 1012.54 1012.95 1013.38 1013.79 1014.08 1014.37 1014.81 1015.02 1015.49 1016.02 1016.39 1016.92 1017.20 1017.59 1017.78 1018.07 1018.38 1018.54 1018.92 1019.02 1019.32 1019.55 1019.72 1019.81 1019.87 1019.86 1019.76 1019.67 1019.64 1019.24 1019.30 1019.94 1020.20 1020.32 1020.39 1020.60 1020.94 1021.27
1009.04 1009.93 1010.63 1011.60 1012.33 1012.70 1012.98 1013.19 1013.55 1013.86 1014.31 1014.73 1014.93 1015.41 1015.71 1016.14 1016.67 1017.00 1017.31 1017.64 1017.77 1018.35 1018.90 1019.22 1019.31 1019.48 1019.58 1019.70 1019.74 1019.69 1019.69 1019.65 1019.46 1019.45 1019.29 1019.27 1019.32 1020.11 1020.19 1020.15 1020.22 1020.49 1020.78
1008.86 1009.49 1010.35 1011.21 1012.00 1012.60 1012.95 1013.15 1013.53 1013.75 1014.18 1014.45 1014.90 1015.25 1015.66 1015.99 1016.33 1016.80 1017.05 1017.45 1017.81 1018.29 1018.57 1018.88 1019.21 1019.40 1019.52 1019.59 1019.53 1019.45 1019.34 1019.38 1019.36 1019.25 1019.10 1019.23 1019.18 1019.21 1019.79 1019.97 1020.00 1020.10 1020.31
1008.15 1008.87 1009.65 1010.54 1011.36 1012.17 1012.95 1013.33 1013.70 1013.94 1014.18 1014.36 1014.71 1015.06 1015.55 1015.88 1016.21 1016.50 1016.65 1016.92 1017.63 1017.87 1018.26 1018.57 1018.98 1019.34 1019.32 1019.55 1019.45 1019.35 1019.28 1019.12 1019.04 1018.79 1018.87 1018.95 1019.10 1019.18 1019.09 1019.29 1019.62 1019.77 1019.78
1007.65 1008.38 1009.03 1010.01 1010.90 1011.71 1012.39 1013.25 1013.84 1014.22 1014.42 1014.60 1014.88 1015.00 1015.41 1015.65 1015.99 1016.28 1016.34 1016.68 1017.16 1017.62 1018.03 1018.44 1018.73 1019.11 1019.26 1019.28 1019.21 1018.87 1018.87 1018.72 1018.56 1018.55 1018.50 1018.49 1018.59 1018.82 1018.91 1018.97 1018.97 1019.01 1019.28
1007.13 1008.05 1008.86 1009.35 1010.15 1011.14 1011.73 1012.25 1012.92 1013.36 1013.92 1014.25 1014.38 1014.78 1015.26 1015.64 1015.91 1016.10 1016.03 1016.48 1016.79 1017.09 1017.54 1018.16 1018.52 1018.72 1018.75 1019.09 1019.10 1018.74 1018.62 1018.54 1018.28 1018.13 1018.09 1018.03 1018.03 1018.26 1018.41 1018.59 1018.72 1018.54 1018.38
1006.35 1007.07 1007.77 1008.64 1009.47 1010.02 1010.69 1011.37 1011.78 1012.40 1012.97 1013.41 1013.83 1014.33 1014.67 1015.10 1015.50 1015.83 1015.88 1015.97 1016.39 1016.67 1017.13 1017.58 1018.01 1018.06 1018.26 1018.59 1018.32 1018.32 1017.99 1017.66 1017.73 1017.68 1017.72 1017.76 1017.67 1017.57 1017.64 1018.00 1018.06 1018.20 1018.20
1005.58 1006.57 1007.36 1007.98 1008.55 1009.18 1009.64 1010.60 1011.52 1012.07 1012.44 1012.89 1013.33 1013.78 1014.02 1014.35 1014.84 1015.25 1015.47 1015.66 1016.03 1016.34 1016.41 1016.93 1017.28 1017.52 1017.54 1018.10 1018.41 1018.24 1018.18 1017.49 1016.96 1016.91 1017.16 1017.21 1017.22 1017.23 1017.18 1017.29 1017.54 1017.67 1017.75
1005.34 1006.41 1006.86 1007.41 1008.12 1008.82 1009.28 1009.51 1009.91 1010.26 1010.57 1011.19 1011.93 1012.65 1013.30 1013.73 1013.85 1014.44 1014.89 1015.28 1015.59 1015.87 1016.07 1016.29 1016.65 1016.73 1017.02 1017.13 1017.89 1018.07 1018.10 1017.72 1017.32 1016.70 1016.83 1016.95 1017.22 1017.22 1017.10 1016.99 1016.90 1017.04 1017.19
1005.49 1006.07 1006.58 1007.12 1007.53 1007.92 1008.56 1009.01 1009.23 1009.31 1009.70 1010.40 1011.11 1011.65 1012.42 1012.86 1013.41 1013.77 1014.19 1014.45 1014.92 1015.35 1015.60 1015.77 1016.02 1016.28 1016.33 1016.48 1016.87 1017.21 1017.27 1017.53 1017.53 1017.39 1016.50 1016.34 1016.43 1016.53 1016.54 1016.53 1016.36 1016.41 1016.54
1006.03 1006.09 1006.59 1006.97 1007.16 1007.52 1008.01 1008.38 1008.61 1009.13 1009.51 1009.76 1010.29 1010.86 1011.36 1011.82 1012.30 1012.88 1013.31 1013.75 1013.96 1014.41 1014.83 1015.10 1015.28 1015.47 1015.79 1016.00 1016.23 1016.65 1016.61 1016.50 1016.83 1017.01 1016.81 1016.44 1016.19 1016.00 1016.05 1015.93 1015.82 1015.68 1015.88
Wind_Speed
14 15 15 16 15 16 18 19 19 20 20 19 19 19 19 20 19 19 16 16 15 14 13 14 13 11 12 14 14 15 16 14 15 16 16 15 13 13 15 14 14 14 12
20 18 16 17 16 17 17 19 19 20 19 20 18 18 18 18 19 18 16 16 14 13 14 13 14 12 12 11 13 15 14 14 14 16 16 13 13 15 14 13 12 12 13
21 19 18 17 17 18 17 18 19 19 19 19 18 17 18 17 16 17 16 15 15 13 13 13 12 12 11 10 12 13 13 12 13 15 11 9 11 12 12 12 12 11 12
20 19 19 18 17 17 17 18 18 19 19 18 17 17 17 16 16 14 16 15 14 13 12 12 12 12 11 11 12 14 13 12 13 13 8 9 11 12 11 12 12 10 11
20 19 18 20 19 19 18 18 17 18 18 18 17 17 17 17 16 15 14 14 14 13 13 12 11 11 11 12 12 12 11 11 11 9 9 8 7 10 11 11 12 11 8
20 20 21 21 20 19 18 18 17 17 17 17 17 16 16 15 15 15 14 13 13 12 12 12 11 11 10 12 11 12 10 10 9 8 7 8 6 10 10 9 9 11 10
19 18 21 21 20 19 19 18 17 16 16 16 17 16 16 15 15 14 14 14 12 12 11 12 12 12 11 12 12 11 10 10 6 6 6 6 7 8 9 8 9 9 8
19 18 19 21 20 19 19 18 18 17 17 17 17 16 16 15 14 14 14 14 13 11 11 12 13 13 12 13 12 10 9 6 5 5 6 5 6 6 9 8 7 7 7
17 17 17 18 19 21 19 18 17 18 17 16 15 15 15 15 15 14 13 13 12 11 11 13 14 13 12 12 10 8 4 1 4 4 5 5 7 7 8 7 7 6 6
16 16 17 16 17 16 16 18 17 17 17 18 17 16 14 14 14 14 13 12 13 12 10 12 12 12 11 10 9 6 4 4 4 6 4 4 7 7 8 8 6 6 6
15 16 16 16 15 15 14 15 16 18 17 16 16 16 13 9 11 12 9 12 13 13 12 12 12 12 10 9 8 6 4 1 3 4 3 9 8 7 6 6 6 6 7
20 19 16 17 16 15 12 13 14 13 11 11 10 12 8 9 8 9 10 11 11 11 12 11 11 13 10 6 6 6 3 3 3 4 4 10 11 10 8 8 8 8 7
20 15 17 15 15 16 12 10 8 8 8 8 11 8 9 7 5 5 4 6 7 11 8 9 9 8 8 6 5 4 3 4 3 3 3 9 12 12 11 10 10 10 10
21 20 19 18 14 15 10 10 10 9 9 8 9 10 8 6 7 6 6 6 6 6 6 7 6 6 8 8 7 5 6 4 4 3 3 10 12 14 13 12 13 12 11
21 20 19 17 15 13 13 10 10 10 10 11 10 10 9 9 8 8 7 7 6 6 5 6 6 6 6 7 6 6 6 5 6 4 4 9 13 15 15 14 13 13 13
20 20 19 16 15 15 13 13 10 10 10 10 10 10 12 9 8 8 8 8 7 6 6 6 6 6 6 7 7 7 6 6 6 6 4 4 12 15 16 16 14 14 14
19 20 20 16 13 16 15 14 11 10 10 10 10 12 12 11 10 9 7 7 7 6 6 5 5 5 6 6 7 7 6 6 6 6 4 4 6 13 15 15 15 14 15
17 20 20 16 14 15 14 12 9 10 10 10 10 10 13 13 12 11 8 8 7 7 6 6 6 6 6 6 6 6 6 6 7 7 5 5 5 6 12 14 14 14 16
19 20 20 20 20 17 15 11 11 12 10 10 10 10 13 13 13 10 9 8 9 7 7 6 6 6 6 6 7 7 6 6 7 7 7 7 7 7 7 9 14 14 16
19 19 19 17 18 18 13 10 9 8 9 9 10 10 12 11 13 12 9 8 9 7 7 7 7 7 6 7 7 7 7 7 7 7 7 8 8 9 10 10 8 9 16
19 18 18 19 18 14 13 12 11 11 10 10 10 13 12 11 13 12 10 10 9 9 10 10 8 10 8 6 6 8 8 10 10 9 7 8 10 10 10 10 8 8 8
20 21 20 19 19 17 13 12 10 11 11 11 10 11 13 13 13 12 12 11 11 9 11 11 11 8 8 7 6 5 7 8 9 10 9 9 12 10 11 12 11 11 10
20 19 19 19 19 18 17 12 10 9 9 10 11 11 13 15 14 14 14 11 11 10 10 11 12 13 8 7 10 4 3 5 4 5 9 10 12 10 10 11 11 11 12
16 16 18 20 19 18 18 16 19 14 14 13 13 12 12 15 16 15 15 13 12 10 11 11 11 12 10 10 5 8 7 3 4 5 3 4 5 7 9 8 10 11 11
10 14 16 18 18 18 19 16 15 16 13 11 11 14 14 14 15 15 15 14 13 10 12 13 12 13 10 10 7 4 9 7 8 7 10 8 7 6 5 5 5 6 7
2 9 12 15 17 18 19 19 18 16 13 12 13 12 12 12 12 16 15 14 14 12 13 12 14 14 11 10 8 8 9 8 8 8 9 11 10 9 8 9 9 8 8
Wind_Direction
158 150 143 135 130 120 121 125 126 132 133 135 138 141 138 136 135 131 127 123 126 126 124 123 120 119 106 106 111 108 114 116 116 114 111 107 111 109 103 108 126 104 94
150 149 148 135 133 126 122 124 127 131 135 136 140 142 142 138 139 136 133 126 127 125 128 124 121 121 116 112 115 119 121 123 119 114 107 105 97 97 103 96 83 91 109
150 148 150 141 137 133 128 126 128 133 137 140 140 144 143 141 143 140 138 130 130 129 132 128 125 124 126 126 123 124 126 121 116 110 114 108 109 108 106 107 105 107 105
150 151 151 145 142 140 135 131 132 136 140 143 143 147 146 148 148 145 144 141 133 138 134 131 133 129 131 130 128 124 125 127 115 122 118 114 115 115 114 113 115 106 105
154 154 149 149 147 147 140 138 141 141 144 149 148 149 151 153 153 156 154 150 144 140 139 138 140 137 137 134 135 128 129 123 114 135 117 113 116 111 123 125 126 122 104
157 157 150 152 153 153 148 146 146 146 147 150 152 156 155 158 161 162 162 160 152 148 149 150 149 140 143 143 141 137 136 129 140 127 133 113 115 119 120 128 115 115 119
159 160 157 157 159 156 156 155 153 153 154 155 157 159 162 167 171 169 169 164 166 157 154 147 145 146 150 145 143 144 150 135 128 132 125 122 122 138 136 130 127 126 132
160 165 161 159 161 160 161 160 159 159 161 163 163 160 163 170 175 172 171 168 173 169 157 153 141 145 148 150 145 148 152 177 174 127 132 143 104 152 146 143 145 142 133
166 168 168 166 166 164 165 166 165 164 171 170 172 165 166 164 172 175 169 167 170 168 161 152 149 150 149 152 153 160 156 149 221 170 157 158 153 178 168 154 149 152 155
171 172 173 172 172 171 170 171 172 175 175 174 175 172 172 172 170 180 172 171 170 167 169 157 153 154 158 160 158 161 162 145 157 155 177 141 175 218 181 160 172 176 191
175 177 177 175 174 173 175 177 177 181 181 183 179 175 175 178 175 170 167 172 178 172 176 164 163 156 163 169 172 181 192 135 158 172 181 141 188 208 183 178 190 200 205
177 182 181 181 179 178 180 179 182 184 189 186 186 180 176 178 185 178 171 181 174 177 177 171 168 161 179 180 183 191 214 199 209 196 212 173 190 202 210 199 200 204 224
179 180 183 183 183 183 183 183 182 186 185 188 184 177 174 180 182 169 168 182 193 190 174 182 170 180 183 198 197 198 202 229 234 220 190 193 201 205 214 209 211 212 216
183 185 181 183 182 187 184 187 184 189 185 186 182 177 176 187 178 183 183 189 204 181 189 178 180 177 189 205 211 211 217 243 243 244 231 208 210 211 213 217 220 218 221
184 186 187 182 180 184 187 186 190 194 189 188 185 182 183 188 192 190 190 191 192 191 184 170 181 180 193 209 218 230 232 240 257 264 265 217 216 211 213 217 218 225 231
185 187 184 190 187 185 190 184 189 192 191 194 189 185 185 186 191 192 190 199 191 200 192 203 187 192 201 212 217 231 237 248 257 272 266 246 215 213 212 217 219 222 231
186 186 188 184 189 195 195 191 190 193 195 201 199 187 184 187 191 200 199 202 200 190 198 198 201 202 210 212 228 230 240 248 257 264 272 264 199 216 223 219 219 221 227
187 187 189 184 185 193 195 192 194 195 197 202 203 201 197 195 194 193 195 200 199 200 201 203 210 212 220 223 230 232 239 249 261 267 259 260 237 229 211 229 226 225 231
191 186 188 190 189 190 195 198 199 200 201 206 207 204 201 202 196 200 202 197 192 197 201 205 204 223 219 229 238 238 244 249 255 253 258 247 238 238 238 212 229 233 239
197 193 187 187 190 191 185 192 203 211 213 205 211 216 205 208 203 202 204 203 199 204 209 210 217 205 224 231 241 240 246 245 253 245 251 245 245 243 244 248 243 238 234
202 194 193 187 186 183 188 187 195 203 207 213 214 213 214 216 211 209 210 203 201 204 210 205 211 213 210 217 237 239 249 244 247 242 240 245 243 240 246 250 251 250 247
201 197 192 191 185 187 187 198 196 199 209 215 215 215 211 211 211 215 218 210 207 206 205 206 210 215 224 205 228 245 254 235 232 240 240 244 245 247 243 238 246 245 251
211 197 196 193 189 191 189 182 192 190 203 204 213 216 211 211 214 217 217 222 213 217 211 209 209 216 221 195 215 226 208 239 272 219 231 245 254 253 254 254 252 251 250
209 202 198 192 194 195 190 187 190 197 200 203 203 206 211 214 209 211 216 217 219 216 221 218 216 223 226 226 194 227 240 252 233 264 211 239 243 247 249 252 254 256 257
209 205 201 198 197 193 192 199 197 202 202 196 202 198 204 202 213 211 213 212 216 221 225 224 218 220 219 231 219 206 227 221 242 258 272 264 257 252 248 239 259 256 253
324 210 208 205 205 200 198 199 201 209 210 204 197 200 203 203 204 211 213 215 218 217 222 221 220 226 221 231 227 219 228 230 231 237 255 265 265 280 280 268 267 262 247